This is the latest recevied weather packets stored in our database for station/object KI5NXU. If no packets are shown the sender has not sent any weather packets the latest 10 day(s).
| Time | Temp. | Humidity | Pressure | Rain* | Wind** | Luminosity | Snow |
|---|---|---|---|---|---|---|---|
| 1777724009 | 11.11° C | 89% | 1020.1 hPa | 0 mm | - | 18 W/m² | - |
| 1777723707 | 11.67° C | 91% | 1020.3 hPa | 0 mm | - | 15 W/m² | - |
| 1777723403 | 11.67° C | 91% | 1020.1 hPa | 0 mm | - | 12 W/m² | - |
| 1777723101 | 11.11° C | 92% | 1020.1 hPa | 0 mm | - | 8 W/m² | - |
| 1777722494 | 11.11° C | 92% | 1019.7 hPa | 0 mm | - | 2 W/m² | - |
| 1777722191 | 11.11° C | 92% | 1020.1 hPa | 0 mm | - | 0 W/m² | - |
| 1777721888 | 10.56° C | 92% | 1020.1 hPa | 0 mm | - | 0 W/m² | - |
| 1777721585 | 10.56° C | 91% | 1019.7 hPa | 0 mm | - | 0 W/m² | - |
| 1777721283 | 11.11° C | 91% | 1019.7 hPa | 0 mm | - | 0 W/m² | - |
| 1777720981 | 11.67° C | 91% | 1019.7 hPa | 0 mm | - | 0 W/m² | - |
| 1777720677 | 11.11° C | 91% | 1019.8 hPa | 0 mm | - | 0 W/m² | - |
| 1777720375 | 11.67° C | 91% | 1019.8 hPa | 0 mm | - | 0 W/m² | - |
| 1777720072 | 11.67° C | 91% | 1019.5 hPa | 0 mm | - | 0 W/m² | - |
| 1777719770 | 11.67° C | 91% | 1019.3 hPa | 0 mm | - | 0 W/m² | - |
| 1777719468 | 11.67° C | 90% | 1019.5 hPa | 0 mm | - | 0 W/m² | - |
| 1777719164 | 12.22° C | 89% | 1019.3 hPa | 0 mm | - | 0 W/m² | - |
| 1777718862 | 11.67° C | 89% | 1019.2 hPa | 0 mm | - | 0 W/m² | - |
| 1777718559 | 12.22° C | 88% | 1019.1 hPa | 0 mm | - | 0 W/m² | - |
| 1777718257 | 12.78° C | 87% | 1019.1 hPa | 0 mm | - | 0 W/m² | - |
| 1777717954 | 12.22° C | 88% | 1019.1 hPa | 0 mm | - | 0 W/m² | - |
| 1777717651 | 11.67° C | 88% | 1018.8 hPa | 0 mm | - | 0 W/m² | - |
| 1777717347 | 12.22° C | 88% | 1019 hPa | 0 mm | - | 0 W/m² | - |
| 1777717046 | 11.67° C | 89% | 1019 hPa | 0 mm | - | 0 W/m² | - |
| 1777716744 | 11.67° C | 89% | 1018.9 hPa | 0 mm | - | 0 W/m² | - |
| 1777716441 | 11.11° C | 91% | 1018.8 hPa | 0 mm | - | 0 W/m² | - |
* Rain latest hour (hover to see other rain measurements)
** Current wind speed in m/s (hover to see current wind gust speed)